Location: Bannatyne
(13.0833°N, 59.5333°W)
Time: 19:46:06
(UTC+00:00)

Transit 2A - Pass Details

Date: 03 February 2020
Orbit: 600 x 959 km, 66.7° (Epoch: 16 February)

Event Time Altitude Azimuth Distance (km) Brightness Sun altitude
Rises 19:20:17 0° 165° (SSE) 3,072 9.3 34.9°
Reaches altitude 10° 19:23:47 10° 140° (SE) 2,082 8.3 34.1°
Maximum altitude 19:26:08 14° 109° (ESE) 1,800 7.7 33.6°
Drops below altitude 10° 19:28:24 10° 79° (ENE) 2,003 7.8 33.2°
Sets 19:31:38 0° 53° (NE) 2,868 8.5 32.5°
